EW9744 Weather Reports


time (UTC)temp
C
wind
direction
speed
KPH
gust
KPH
rain 1hr
cm
rain 24hr
cm
rain mn
cm
humidity
%
barometer
mb
20260503201530 29 59 6.4 17.7 0.00 0.00 0.00 28 1015.5
20260503200033 29 107 6.4 16.1 0.00 0.00 0.00 29 1015.6
20260503194529 28 114 4.8 12.9 0.00 0.00 0.00 31 1015.8
20260503191531 26 71 4.8 17.7 0.00 0.00 0.00 34 1016.1
20260503190030 26 68 6.4 14.5 0.00 0.00 0.00 34 1016.2
20260503183029 25 71 6.4 12.9 0.00 0.00 0.00 36 1016.4
20260503181529 24 33 6.4 16.1 0.00 0.00 0.00 38 1016.5
20260503174530 23 11 6.4 11.3 0.00 0.00 0.00 39 1016.6
20260503173032 22 35 4.8 11.3 0.00 0.00 0.00 40 1016.8
20260503171531 22 36 4.8 12.9 0.00 0.00 0.00 40 1016.8
20260503081526 15 287 6.4 8.0 0.00 0.00 0.00 59 1016.6
20260503054605 17 321 4.8 6.4 0.00 0.00 0.00 53 1016.5
20260503053105 17 298 4.8 6.4 0.00 0.00 0.00 50 1016.5
20260503051530 18 288 6.4 12.9 0.00 0.00 0.00 49 1016.5
20260503050029 19 257 6.4 11.3 0.00 0.00 0.00 47 1016.4
20260503040037 19 247 8.0 16.1 0.00 0.00 0.00 48 1015.9
20260503033030 19 261 4.8 9.7 0.00 0.00 0.00 48 1015.4
20260503031526 20 322 4.8 11.3 0.00 0.00 0.00 46 1015.1
20260503030031 21 272 9.7 12.9 0.00 0.00 0.00 44 1014.8
20260503023029 22 261 8.0 12.9 0.00 0.00 0.00 41 1014.7
20260503021533 22 258 8.0 11.3 0.00 0.00 0.00 39 1014.6
20260503020030 23 249 6.4 11.3 0.00 0.00 0.00 39 1014.6
20260503014530 23 241 6.4 8.0 0.00 0.00 0.00 38 1014.6
20260503013030 23 235 3.2 8.0 0.00 0.00 0.00 38 1014.6
20260503011530 24 227 3.2 8.0 0.00 0.00 0.00 38 1014.6
20260503010108 25 211 3.2 4.8 0.00 0.00 0.00 36 1014.7
20260503004606 25 199 3.2 9.7 0.00 0.00 0.00 35 1014.7
20260503003030 26 185 3.2 9.7 0.00 0.00 0.00 33 1014.6
20260503001531 26 156 3.2 9.7 0.00 0.00 0.00 33 1014.7
20260502234532 27 135 3.2 9.7 0.00 0.00 0.00 33 1014.9
20260502233033 27 137 3.2 9.7 0.00 0.00 0.00 32 1015.2
20260502231531 27 109 3.2 11.3 0.00 0.00 0.00 33 1015.4
20260502230031 26 120 3.2 9.7 0.00 0.00 0.00 33 1015.5
20260502224532 26 134 1.6 9.7 0.00 0.00 0.00 33 1015.6
20260502223104 27 99 3.2 12.9 0.00 0.00 0.00 33 1015.9
20260502221530 26 125 3.2 12.9 0.00 0.00 0.00 36 1016.0
20260502220031 26 31 4.8 12.9 0.00 0.00 0.00 38 1016.2
20260502214530 26 30 4.8 11.3 0.00 0.00 0.00 38 1016.3
20260502213031 25 71 3.2 11.3 0.00 0.00 0.00 39 1016.5
20260502210029 22 33 4.8 9.7 0.00 0.00 0.00 45 1016.7
20260502204528 22 26 6.4 11.3 0.00 0.00 0.00 51 1016.6